Location: *
(46.1200°N, 11.2700°E)
Time: 23:25:29
(UTC+00:00)

Cosmos 1869 Rocket - Pass Details

Date: 02 March 2021
Orbit: 605 x 633 km, 82.5° (Epoch: 18 April)

Event Time Altitude Azimuth Distance (km) Brightness Sun altitude
Rises 19:33:03 0° 199° (SSW) 2,857 7.0 -26.5°
Enters shadow 19:33:15 - 199° (SSW) 2,772 6.9 -26.5°
Exits shadow 19:39:22 54° 272° (W) 753 4.2 -27.5°
Maximum altitude 19:39:32 54° 282° (WNW) 749 4.2 -27.6°
Drops below altitude 10° 19:43:52 10° 0° (N) 1,994 6.4 -28.3°
Sets 19:46:10 0° 5° (N) 2,910 7.2 -28.6°
